Showing default

QIANFAN-21, 61554

Orbit data source: Space-Track

QIANFAN-21, 61554 is a Chinese payload satellite in LEO that was launched on Tue, 15 Oct 2024 UTC via a CHANG ZHENG 6A launch vehicle from the Taiyaun Space Center, China (TSC). Payload-class satellites include a variety of spacecraft equipped with specific instruments for various scientific and technological missions. These include communications satellites like Starlink; space stations such as the ISS; scientific satellites like the Hubble; Earth observation satellites from companies like Planet Labs, Umbra, and HawkEye 360; GPS; miniature CubeSats for education and research; and military/defense satellites.

Loading next visibility...
Identifier
61554, 2024-185C
Orbit
LEO
Country
Flag of CNCN / PRC
Related business
Manufacturer
GESIH/SECM
Mission
Partially operational Commercial Communications
Bus & Motor
QIANFAN, Unknown motor
Mass
267 kg wet, ~267 kg dry
Launch date (UTC)
2024-10-15 (1 year ago)
Launch vehicle
CHANG ZHENG 6A
Launch site
Taiyaun Space Center, China (TSC)
Object type
Payload
Rocket body
Debris
Shape & HBR
Box + 1 Pan, 5.0 m
Radar Cross Section
13.200 m², Large (>1 m²)

Expand to show TLE details & history
Last TLE update: 9 hours ago

TLE from 9 hours ago
0 QIANFAN-21
1 61554U 24185C   26035.27643955  .00000660  00000-0  28829-3 0  9992
2 61554  88.9682  70.7047 0010679 176.4991 183.6278 14.22691008 77584
Epoch: 2026-02-04T06:38Z
TLE epoch observation values (Epoch: 2026-02-04T06:38:04.377Z)
Latitude
0.00007°
Longitude
-163.25888°
Altitude
826.992 km
Speed
7.435 km/s
True Right ascension
04h 42m 49s
True Declination
0° 00' 00"
Sunlit
Object was in daylight at epoch
Visualization orbit readout
Latitude
Unknown
Longitude
Unknown
Altitude
Unknown
Speed
Unknown
Apparent Right ascension
Unknown
Apparent Declination
Unknown
Sunlit
N/A
Visualization observer readout
Local Sidereal Time
17:45:04
Azimuth
Unknown
Elevation
Unknown
Doppler factor
Unknown
Orbital elements
Apogee altitude
820.894 km
Perigee altitude
805.534 km
Semi-major axis
7,191.351 km
Eccentricity
0.00107
Inclination
88.9682°
RAAN
70.7047°
Arg. of periapsis
176.4991°
True anomaly
183.62007°
Mean anomaly
183.6278°
Eccentric anomaly
183.62393°
Mean motion
3.559 °/min
Orbital period
101.15 mins
BSTAR
0.00028829
Loading maneuver chart data...
Computing Atmospheric mass density...
Loading historical data...
Loading historical data...
Loading historical data...
Loading historical data...
Loading historical data...
Loading historical data...
Loading historical data...

Documentation

Showing up to 5 results
|